Time,TemperatureF,DewpointF,PressureIn,WindDirection,WindDirectionDegrees,WindSpeedMPH,WindSpeedGustMPH,Humidity,HourlyPrecipIn,Conditions,Clouds,dailyrainin,SoftwareType,DateUTC
2013-02-24 00:01:00,12.0,6.0,-100.00,West,279,11.0,21.0,74,-99.99,,,-99.99,,2013-02-24 07:01:00,
2013-02-24 00:11:00,12.0,5.0,-100.00,West,279,10.0,21.0,73,-99.99,,,-99.99,,2013-02-24 07:11:00,
2013-02-24 00:21:00,12.0,5.0,-100.00,West,279,10.0,21.0,73,-99.99,,,-99.99,,2013-02-24 07:21:00,
2013-02-24 00:31:00,12.0,5.0,-100.00,West,279,10.0,21.0,73,-99.99,,,-99.99,,2013-02-24 07:31:00,
2013-02-24 00:41:00,12.0,4.0,-100.00,West,276,11.0,26.0,71,-99.99,,,-99.99,,2013-02-24 07:41:00,
2013-02-24 00:52:00,12.0,4.0,-100.00,West,276,11.0,26.0,71,-99.99,,,-99.99,,2013-02-24 07:52:00,
2013-02-24 01:01:00,12.0,4.0,-100.00,West,277,10.0,21.0,70,-99.99,,,-99.99,,2013-02-24 08:01:00,
2013-02-24 01:11:00,12.0,4.0,-100.00,West,274,11.0,25.0,70,-99.99,,,-99.99,,2013-02-24 08:11:00,
2013-02-24 01:22:00,12.0,4.0,-100.00,West,274,11.0,25.0,70,-99.99,,,-99.99,,2013-02-24 08:22:00,
2013-02-24 01:31:00,12.0,4.0,-100.00,West,274,11.0,25.0,70,-99.99,,,-99.99,,2013-02-24 08:31:00,
2013-02-24 01:41:00,12.0,5.0,-100.00,West,272,11.0,23.0,72,-99.99,,,-99.99,,2013-02-24 08:41:00,
2013-02-24 01:54:00,12.0,5.0,-100.00,West,272,11.0,23.0,72,-99.99,,,-99.99,,2013-02-24 08:54:00,
2013-02-24 02:01:00,12.0,5.0,-100.00,West,268,12.0,23.0,72,-99.99,,,-99.99,,2013-02-24 09:01:00,
2013-02-24 02:11:00,11.0,4.0,-100.00,West,269,13.0,24.0,71,-99.99,,,-99.99,,2013-02-24 09:11:00,
2013-02-24 02:21:00,11.0,4.0,-100.00,West,269,13.0,24.0,71,-99.99,,,-99.99,,2013-02-24 09:21:00,
2013-02-24 02:31:00,11.0,4.0,-100.00,West,269,13.0,24.0,71,-99.99,,,-99.99,,2013-02-24 09:31:00,
2013-02-24 02:41:00,12.0,4.0,-100.00,West,267,12.0,24.0,70,-99.99,,,-99.99,,2013-02-24 09:41:00,
2013-02-24 02:52:00,12.0,4.0,-100.00,West,267,12.0,24.0,70,-99.99,,,-99.99,,2013-02-24 09:52:00,
2013-02-24 03:01:00,11.0,4.0,-100.00,West,276,12.0,22.0,72,-99.99,,,-99.99,,2013-02-24 10:01:00,
2013-02-24 03:11:00,11.0,5.0,-100.00,West,264,13.0,22.0,75,-99.99,,,-99.99,,2013-02-24 10:11:00,
2013-02-24 03:21:00,11.0,5.0,-100.00,West,264,13.0,22.0,75,-99.99,,,-99.99,,2013-02-24 10:21:00,
2013-02-24 03:31:00,11.0,5.0,-100.00,West,264,13.0,22.0,75,-99.99,,,-99.99,,2013-02-24 10:31:00,
2013-02-24 03:41:00,11.0,5.0,-100.00,West,264,11.0,22.0,76,-99.99,,,-99.99,,2013-02-24 10:41:00,
2013-02-24 03:52:00,11.0,5.0,-100.00,West,264,11.0,22.0,76,-99.99,,,-99.99,,2013-02-24 10:52:00,
2013-02-24 04:01:00,11.0,5.0,-100.00,West,274,11.0,23.0,78,-99.99,,,-99.99,,2013-02-24 11:01:00,
2013-02-24 04:11:00,11.0,5.0,-100.00,West,277,9.0,20.0,77,-99.99,,,-99.99,,2013-02-24 11:11:00,
2013-02-24 04:21:00,11.0,5.0,-100.00,West,277,9.0,20.0,77,-99.99,,,-99.99,,2013-02-24 11:21:00,
2013-02-24 04:32:00,11.0,5.0,-100.00,West,277,9.0,20.0,77,-99.99,,,-99.99,,2013-02-24 11:32:00,
2013-02-24 04:41:00,11.0,5.0,-100.00,West,279,10.0,23.0,77,-99.99,,,-99.99,,2013-02-24 11:41:00,
2013-02-24 04:52:00,11.0,5.0,-100.00,West,279,10.0,23.0,77,-99.99,,,-99.99,,2013-02-24 11:52:00,
2013-02-24 05:01:00,11.0,6.0,-100.00,West,275,9.0,20.0,79,-99.99,,,-99.99,,2013-02-24 12:01:00,
2013-02-24 05:11:00,11.0,6.0,-100.00,West,270,9.0,18.0,80,-99.99,,,-99.99,,2013-02-24 12:11:00,
2013-02-24 05:21:00,11.0,6.0,-100.00,West,270,9.0,18.0,80,-99.99,,,-99.99,,2013-02-24 12:21:00,
2013-02-24 05:32:00,11.0,6.0,-100.00,West,270,9.0,18.0,80,-99.99,,,-99.99,,2013-02-24 12:32:00,
2013-02-24 05:46:00,11.0,5.0,-100.00,WNW,285,7.0,16.0,78,-99.99,,,-99.99,,2013-02-24 12:46:00,
2013-02-24 05:56:00,11.0,5.0,-100.00,WNW,285,7.0,16.0,78,-99.99,,,-99.99,,2013-02-24 12:56:00,
2013-02-24 06:07:00,11.0,6.0,-100.00,West,277,5.0,18.0,80,-99.99,,,-99.99,,2013-02-24 13:07:00,
2013-02-24 06:15:00,10.0,6.0,-100.00,West,274,7.0,13.0,83,-99.99,,,-99.99,,2013-02-24 13:15:00,
2013-02-24 06:24:00,10.0,6.0,-100.00,West,274,7.0,13.0,83,-99.99,,,-99.99,,2013-02-24 13:24:00,
2013-02-24 06:32:00,10.0,6.0,-100.00,West,274,7.0,13.0,83,-99.99,,,-99.99,,2013-02-24 13:32:00,
2013-02-24 06:43:00,10.0,6.0,-100.00,West,269,8.0,16.0,80,-99.99,,,-99.99,,2013-02-24 13:43:00,
2013-02-24 06:54:00,10.0,6.0,-100.00,West,269,8.0,16.0,80,-99.99,,,-99.99,,2013-02-24 13:54:00,
2013-02-24 07:03:00,10.0,5.0,-100.00,West,273,7.0,16.0,78,-99.99,,,-99.99,,2013-02-24 14:03:00,
2013-02-24 07:12:00,11.0,5.0,-100.00,West,281,6.0,14.0,78,-99.99,,,-99.99,,2013-02-24 14:12:00,
2013-02-24 07:23:00,11.0,5.0,-100.00,West,281,6.0,14.0,78,-99.99,,,-99.99,,2013-02-24 14:23:00,
2013-02-24 07:32:00,11.0,5.0,-100.00,West,281,6.0,14.0,78,-99.99,,,-99.99,,2013-02-24 14:32:00,
2013-02-24 07:43:00,11.0,5.0,-100.00,West,271,5.0,13.0,77,-99.99,,,-99.99,,2013-02-24 14:43:00,
2013-02-24 07:54:00,11.0,5.0,-100.00,West,271,5.0,13.0,77,-99.99,,,-99.99,,2013-02-24 14:54:00,
2013-02-24 08:02:00,11.0,5.0,-100.00,West,273,5.0,13.0,77,-99.99,,,-99.99,,2013-02-24 15:02:00,
2013-02-24 08:12:00,11.0,5.0,-100.00,West,270,7.0,11.0,78,-99.99,,,-99.99,,2013-02-24 15:12:00,
2013-02-24 08:22:00,11.0,5.0,-100.00,West,270,7.0,11.0,78,-99.99,,,-99.99,,2013-02-24 15:22:00,
2013-02-24 08:31:00,11.0,5.0,-100.00,West,270,7.0,11.0,78,-99.99,,,-99.99,,2013-02-24 15:31:00,
2013-02-24 08:42:00,11.0,5.0,-100.00,West,273,6.0,16.0,79,-99.99,,,-99.99,,2013-02-24 15:42:00,
2013-02-24 08:53:00,11.0,5.0,-100.00,West,273,6.0,16.0,79,-99.99,,,-99.99,,2013-02-24 15:53:00,
2013-02-24 09:01:00,11.0,5.0,-100.00,West,280,7.0,14.0,77,-99.99,,,-99.99,,2013-02-24 16:01:00,
2013-02-24 09:11:00,11.0,5.0,-100.00,WNW,284,6.0,12.0,75,-99.99,,,-99.99,,2013-02-24 16:11:00,
2013-02-24 09:21:00,11.0,5.0,-100.00,WNW,284,6.0,12.0,75,-99.99,,,-99.99,,2013-02-24 16:21:00,
2013-02-24 09:31:00,11.0,5.0,-100.00,WNW,284,6.0,12.0,75,-99.99,,,-99.99,,2013-02-24 16:31:00,
2013-02-24 09:41:00,12.0,6.0,-100.00,West,278,6.0,12.0,74,-99.99,,,-99.99,,2013-02-24 16:41:00,
2013-02-24 09:52:00,12.0,6.0,-100.00,West,278,6.0,12.0,74,-99.99,,,-99.99,,2013-02-24 16:52:00,
2013-02-24 10:01:00,13.0,5.0,-100.00,WNW,287,5.0,10.0,71,-99.99,,,-99.99,,2013-02-24 17:01:00,
2013-02-24 10:11:00,14.0,6.0,-100.00,WNW,285,4.0,8.0,69,-99.99,,,-99.99,,2013-02-24 17:11:00,
2013-02-24 10:21:00,14.0,6.0,-100.00,WNW,285,4.0,8.0,69,-99.99,,,-99.99,,2013-02-24 17:21:00,
2013-02-24 10:31:00,14.0,6.0,-100.00,WNW,285,4.0,8.0,69,-99.99,,,-99.99,,2013-02-24 17:31:00,
2013-02-24 10:41:00,16.0,6.0,-100.00,WNW,303,3.0,11.0,64,-99.99,,,-99.99,,2013-02-24 17:41:00,
2013-02-24 10:52:00,16.0,6.0,-100.00,WNW,303,3.0,11.0,64,-99.99,,,-99.99,,2013-02-24 17:52:00,
2013-02-24 11:01:00,16.0,6.0,-100.00,WNW,303,3.0,11.0,64,-99.99,,,-99.99,,2013-02-24 18:01:00,
2013-02-24 11:11:00,17.0,7.0,-100.00,NW,322,4.0,11.0,66,-99.99,,,-99.99,,2013-02-24 18:11:00,
2013-02-24 11:22:00,17.0,7.0,-100.00,NW,322,4.0,11.0,66,-99.99,,,-99.99,,2013-02-24 18:22:00,
2013-02-24 11:31:00,17.0,7.0,-100.00,NW,322,4.0,11.0,66,-99.99,,,-99.99,,2013-02-24 18:31:00,
2013-02-24 11:41:00,18.0,7.0,-100.00,NNW,334,4.0,10.0,61,-99.99,,,-99.99,,2013-02-24 18:41:00,
2013-02-24 11:52:00,18.0,7.0,-100.00,NNW,334,4.0,10.0,61,-99.99,,,-99.99,,2013-02-24 18:52:00,
2013-02-24 12:01:00,19.0,8.0,-100.00,NNW,334,4.0,9.0,60,-99.99,,,-99.99,,2013-02-24 19:01:00,
2013-02-24 12:11:00,21.0,8.0,-100.00,WNW,291,3.0,9.0,58,-99.99,,,-99.99,,2013-02-24 19:11:00,
2013-02-24 12:22:00,21.0,8.0,-100.00,WNW,291,3.0,9.0,58,-99.99,,,-99.99,,2013-02-24 19:22:00,
2013-02-24 12:31:00,21.0,8.0,-100.00,WNW,291,3.0,9.0,58,-99.99,,,-99.99,,2013-02-24 19:31:00,
2013-02-24 12:41:00,21.0,8.0,-100.00,NW,308,3.0,9.0,57,-99.99,,,-99.99,,2013-02-24 19:41:00,
2013-02-24 12:52:00,21.0,8.0,-100.00,NW,308,3.0,9.0,57,-99.99,,,-99.99,,2013-02-24 19:52:00,
2013-02-24 13:02:00,21.0,8.0,-100.00,NW,322,5.0,10.0,58,-99.99,,,-99.99,,2013-02-24 20:02:00,
2013-02-24 13:11:00,21.0,9.0,-100.00,NW,308,5.0,11.0,58,-99.99,,,-99.99,,2013-02-24 20:11:00,
2013-02-24 13:21:00,21.0,9.0,-100.00,NW,308,5.0,11.0,58,-99.99,,,-99.99,,2013-02-24 20:21:00,
2013-02-24 13:31:00,21.0,9.0,-100.00,NW,308,5.0,11.0,58,-99.99,,,-99.99,,2013-02-24 20:31:00,
2013-02-24 13:41:00,20.0,8.0,-100.00,NW,309,5.0,15.0,59,-99.99,,,-99.99,,2013-02-24 20:41:00,
2013-02-24 13:52:00,20.0,8.0,-100.00,NW,309,5.0,15.0,59,-99.99,,,-99.99,,2013-02-24 20:52:00,
2013-02-24 14:01:00,21.0,9.0,-100.00,NW,310,5.0,13.0,59,-99.99,,,-99.99,,2013-02-24 21:01:00,
2013-02-24 14:11:00,21.0,8.0,-100.00,WNW,303,5.0,12.0,58,-99.99,,,-99.99,,2013-02-24 21:11:00,
2013-02-24 14:21:00,21.0,8.0,-100.00,WNW,303,5.0,12.0,58,-99.99,,,-99.99,,2013-02-24 21:21:00,
2013-02-24 14:31:00,21.0,8.0,-100.00,WNW,303,5.0,12.0,58,-99.99,,,-99.99,,2013-02-24 21:31:00,
2013-02-24 14:41:00,19.0,9.0,-100.00,WNW,297,4.0,10.0,65,-99.99,,,-99.99,,2013-02-24 21:41:00,
2013-02-24 14:52:00,19.0,9.0,-100.00,WNW,297,4.0,10.0,65,-99.99,,,-99.99,,2013-02-24 21:52:00,
2013-02-24 15:01:00,19.0,10.0,-100.00,NW,307,4.0,13.0,66,-99.99,,,-99.99,,2013-02-24 22:01:00,
2013-02-24 15:11:00,20.0,10.0,-100.00,NW,314,4.0,10.0,66,-99.99,,,-99.99,,2013-02-24 22:11:00,
2013-02-24 15:21:00,20.0,10.0,-100.00,NW,314,4.0,10.0,66,-99.99,,,-99.99,,2013-02-24 22:21:00,
2013-02-24 15:31:00,20.0,10.0,-100.00,NW,314,4.0,10.0,66,-99.99,,,-99.99,,2013-02-24 22:31:00,
2013-02-24 15:41:00,20.0,11.0,-100.00,NW,311,5.0,11.0,67,-99.99,,,-99.99,,2013-02-24 22:41:00,
2013-02-24 15:52:00,20.0,11.0,-100.00,NW,311,5.0,11.0,67,-99.99,,,-99.99,,2013-02-24 22:52:00,
2013-02-24 16:02:00,20.0,11.0,-100.00,NW,317,4.0,12.0,65,-99.99,,,-99.99,,2013-02-24 23:02:00,
2013-02-24 16:11:00,20.0,10.0,-100.00,WNW,299,4.0,11.0,64,-99.99,,,-99.99,,2013-02-24 23:11:00,
2013-02-24 16:21:00,20.0,10.0,-100.00,WNW,299,4.0,11.0,64,-99.99,,,-99.99,,2013-02-24 23:21:00,
2013-02-24 16:31:00,20.0,10.0,-100.00,WNW,299,4.0,11.0,64,-99.99,,,-99.99,,2013-02-24 23:31:00,
2013-02-24 16:41:00,19.0,10.0,-100.00,NW,310,4.0,10.0,66,-99.99,,,-99.99,,2013-02-24 23:41:00,
2013-02-24 16:52:00,19.0,10.0,-100.00,NW,310,4.0,10.0,66,-99.99,,,-99.99,,2013-02-24 23:52:00,
2013-02-24 17:01:00,19.0,10.0,-100.00,NW,310,4.0,10.0,66,-99.99,,,-99.99,,2013-02-25 00:01:00,
2013-02-24 17:11:00,18.0,9.0,-100.00,NW,318,3.0,11.0,67,-99.99,,,-99.99,,2013-02-25 00:11:00,
2013-02-24 17:21:00,18.0,9.0,-100.00,NW,318,3.0,11.0,67,-99.99,,,-99.99,,2013-02-25 00:21:00,
2013-02-24 17:31:00,18.0,9.0,-100.00,NW,318,3.0,11.0,67,-99.99,,,-99.99,,2013-02-25 00:31:00,
2013-02-24 17:41:00,17.0,8.0,-100.00,NW,311,5.0,8.0,69,-99.99,,,-99.99,,2013-02-25 00:41:00,
2013-02-24 17:52:00,17.0,8.0,-100.00,NW,311,5.0,8.0,69,-99.99,,,-99.99,,2013-02-25 00:52:00,
2013-02-24 18:01:00,17.0,8.0,-100.00,NW,306,4.0,8.0,68,-99.99,,,-99.99,,2013-02-25 01:01:00,
2013-02-24 18:11:00,16.0,8.0,-100.00,NW,306,3.0,6.0,70,-99.99,,,-99.99,,2013-02-25 01:11:00,
2013-02-24 18:21:00,16.0,8.0,-100.00,NW,306,3.0,6.0,70,-99.99,,,-99.99,,2013-02-25 01:21:00,
2013-02-24 18:31:00,16.0,8.0,-100.00,NW,306,3.0,6.0,70,-99.99,,,-99.99,,2013-02-25 01:31:00,
2013-02-24 18:42:00,15.0,8.0,-100.00,West,279,4.0,8.0,74,-99.99,,,-99.99,,2013-02-25 01:42:00,
2013-02-24 18:52:00,15.0,8.0,-100.00,West,279,4.0,8.0,74,-99.99,,,-99.99,,2013-02-25 01:52:00,
2013-02-24 19:01:00,15.0,8.0,-100.00,West,281,3.0,5.0,74,-99.99,,,-99.99,,2013-02-25 02:01:00,
2013-02-24 19:11:00,14.0,8.0,-100.00,WSW,257,3.0,6.0,74,-99.99,,,-99.99,,2013-02-25 02:11:00,
2013-02-24 19:21:00,14.0,8.0,-100.00,WSW,257,3.0,6.0,74,-99.99,,,-99.99,,2013-02-25 02:21:00,
2013-02-24 19:31:00,14.0,8.0,-100.00,WSW,257,3.0,6.0,74,-99.99,,,-99.99,,2013-02-25 02:31:00,
2013-02-24 19:41:00,14.0,6.0,-100.00,WSW,254,3.0,6.0,72,-99.99,,,-99.99,,2013-02-25 02:41:00,
2013-02-24 19:52:00,14.0,6.0,-100.00,WSW,254,3.0,6.0,72,-99.99,,,-99.99,,2013-02-25 02:52:00,
2013-02-24 20:01:00,14.0,6.0,-100.00,SW,234,3.0,5.0,71,-99.99,,,-99.99,,2013-02-25 03:01:00,
2013-02-24 20:11:00,13.0,6.0,-100.00,SSW,210,3.0,6.0,72,-99.99,,,-99.99,,2013-02-25 03:11:00,
2013-02-24 20:21:00,13.0,6.0,-100.00,SSW,210,3.0,6.0,72,-99.99,,,-99.99,,2013-02-25 03:21:00,
2013-02-24 20:31:00,13.0,6.0,-100.00,SSW,210,3.0,6.0,72,-99.99,,,-99.99,,2013-02-25 03:31:00,
2013-02-24 20:41:00,13.0,6.0,-100.00,NW,315,1.0,3.0,71,-99.99,,,-99.99,,2013-02-25 03:41:00,
2013-02-24 20:52:00,13.0,6.0,-100.00,NW,315,1.0,3.0,71,-99.99,,,-99.99,,2013-02-25 03:52:00,
2013-02-24 21:01:00,13.0,6.0,-100.00,WSW,257,4.0,6.0,71,-99.99,,,-99.99,,2013-02-25 04:01:00,
2013-02-24 21:11:00,13.0,6.0,-100.00,WSW,252,3.0,4.0,72,-99.99,,,-99.99,,2013-02-25 04:11:00,
2013-02-24 21:21:00,13.0,6.0,-100.00,WSW,252,3.0,4.0,72,-99.99,,,-99.99,,2013-02-25 04:21:00,
2013-02-24 21:31:00,13.0,6.0,-100.00,WSW,252,3.0,4.0,72,-99.99,,,-99.99,,2013-02-25 04:31:00,
2013-02-24 21:41:00,13.0,6.0,-100.00,West,271,3.0,5.0,73,-99.99,,,-99.99,,2013-02-25 04:41:00,
2013-02-24 21:52:00,13.0,6.0,-100.00,West,271,3.0,5.0,73,-99.99,,,-99.99,,2013-02-25 04:52:00,
2013-02-24 22:01:00,13.0,6.0,-100.00,WNW,286,3.0,6.0,73,-99.99,,,-99.99,,2013-02-25 05:01:00,
2013-02-24 22:11:00,13.0,6.0,-100.00,WNW,298,1.0,3.0,73,-99.99,,,-99.99,,2013-02-25 05:11:00,
2013-02-24 22:22:00,13.0,6.0,-100.00,WNW,298,1.0,3.0,73,-99.99,,,-99.99,,2013-02-25 05:22:00,
2013-02-24 22:31:00,13.0,6.0,-100.00,WNW,298,1.0,3.0,73,-99.99,,,-99.99,,2013-02-25 05:31:00,
2013-02-24 22:41:00,12.0,6.0,-100.00,West,280,2.0,4.0,75,-99.99,,,-99.99,,2013-02-25 05:41:00,
2013-02-24 22:52:00,12.0,6.0,-100.00,West,280,2.0,4.0,75,-99.99,,,-99.99,,2013-02-25 05:52:00,
2013-02-24 23:02:00,12.0,5.0,-100.00,WSW,252,1.0,4.0,73,-99.99,,,-99.99,,2013-02-25 06:02:00,
2013-02-24 23:11:00,12.0,5.0,-100.00,SW,231,1.0,3.0,72,-99.99,,,-99.99,,2013-02-25 06:11:00,
2013-02-24 23:21:00,12.0,5.0,-100.00,SW,231,1.0,3.0,72,-99.99,,,-99.99,,2013-02-25 06:21:00,
2013-02-24 23:31:00,12.0,5.0,-100.00,SW,231,1.0,3.0,72,-99.99,,,-99.99,,2013-02-25 06:31:00,
2013-02-24 23:41:00,12.0,5.0,-100.00,SE,133,1.0,3.0,73,-99.99,,,-99.99,,2013-02-25 06:41:00,
2013-02-24 23:52:00,12.0,5.0,-100.00,SE,133,1.0,3.0,73,-99.99,,,-99.99,,2013-02-25 06:52:00,